Theta_e
334 339 345 342 343 345 345 344 345 345 347 347 346 346 346 345 344 342 339 338 337 337 336 336 335 335 335 335 334 332 331 333 333 333 333 332 333 333 334 333 335 331 335
334 336 342 345 346 346 345 344 344 346 347 346 346 346 346 345 343 340 339 338 337 336 335 335 335 336 336 335 334 333 331 330 330 330 330 334 332 332 332 331 331 330 331
333 335 338 345 346 345 343 342 343 344 346 345 346 346 345 343 340 339 338 338 337 336 335 334 334 335 335 335 334 333 332 330 328 327 330 327 329 331 330 330 330 330 330
333 332 339 343 345 344 342 341 341 341 343 345 345 345 343 342 341 338 337 337 336 335 334 333 334 334 333 333 333 332 331 329 328 330 327 328 328 332 332 330 329 330 330
331 331 343 343 345 342 341 340 339 339 339 340 340 340 339 339 338 339 338 336 334 334 334 334 333 332 331 331 330 329 328 326 328 328 327 326 328 332 331 330 329 329 328
332 332 341 343 343 341 340 339 338 338 337 337 337 337 338 336 334 335 334 335 338 337 334 333 332 330 329 330 330 329 327 326 328 326 325 327 327 328 332 330 330 331 331
334 334 342 342 343 342 340 338 338 337 337 337 337 336 336 334 333 333 332 331 331 331 331 330 329 329 331 332 332 331 329 328 326 326 326 327 327 328 333 333 331 330 332
333 338 337 336 340 341 341 339 338 337 336 335 336 337 336 335 334 334 333 332 331 330 329 329 330 330 331 332 332 331 330 330 329 330 330 330 325 327 332 333 334 332 331
332 338 338 339 338 336 338 337 338 338 337 335 334 334 335 335 335 333 331 331 330 330 330 329 329 330 331 332 331 331 330 329 328 329 329 329 328 331 334 332 333 334 334
331 335 337 338 337 337 338 332 334 335 335 335 334 332 330 330 331 330 329 329 329 330 330 330 331 332 332 332 332 331 329 328 327 326 326 327 330 332 333 333 334 335 336
329 331 333 335 337 335 334 330 330 331 332 331 330 327 327 334 334 332 327 329 329 330 331 332 332 333 332 330 331 329 327 328 326 326 326 329 330 332 331 331 332 333 334
329 330 331 333 335 334 331 332 334 335 336 336 336 336 335 335 335 331 326 327 329 329 330 332 333 331 327 330 329 327 328 327 327 327 327 330 329 331 331 332 332 332 334
331 333 331 332 334 335 333 335 335 336 337 337 336 337 336 335 335 334 334 334 335 326 332 332 332 331 331 331 330 330 329 328 328 328 327 329 331 332 333 333 332 333 333
331 332 334 334 334 335 336 335 336 335 336 335 336 336 335 334 334 334 333 334 335 334 333 333 332 333 333 332 331 330 330 330 329 330 327 325 329 332 333 334 334 335 334
330 331 331 335 335 335 336 336 335 335 335 335 335 334 334 333 334 335 335 335 336 336 334 334 335 335 334 334 333 332 331 331 331 330 331 322 325 331 333 335 336 337 337
331 332 334 335 335 335 334 335 335 335 335 335 335 335 335 335 336 336 335 336 334 336 336 336 335 335 334 334 333 333 333 332 332 333 331 331 324 328 332 334 335 337 337
332 334 334 335 335 334 333 333 334 335 335 335 336 337 337 337 336 335 335 335 336 337 337 336 336 335 335 334 333 332 332 333 331 330 333 331 329 323 327 333 334 334 335
334 334 335 333 333 333 332 333 334 335 336 337 337 337 337 337 337 336 336 337 338 336 335 333 333 332 330 330 327 328 327 328 330 329 329 328 328 328 327 328 332 331 331
334 334 334 334 333 333 333 334 335 337 337 337 337 337 337 336 335 334 335 334 333 332 331 329 329 327 324 325 325 325 326 325 325 325 326 327 328 328 328 327 325 323 325
334 335 335 336 335 336 336 336 336 336 337 335 330 326 325 324 323 324 326 326 325 324 324 324 322 323 323 322 319 319 322 323 323 323 324 325 326 326 327 328 328 326 320
334 334 334 334 335 335 335 334 334 333 326 319 316 315 316 316 317 319 319 319 320 319 320 320 319 319 319 321 318 317 317 320 321 321 323 322 322 323 325 325 325 324 323
330 332 332 332 333 333 334 334 333 318 314 313 313 313 313 312 313 313 314 315 316 317 317 317 317 316 317 318 312 311 308 312 318 317 318 319 319 321 322 322 323 322 322
319 321 321 322 322 324 329 329 320 313 311 308 309 309 308 309 309 309 309 311 311 311 310 311 311 311 310 314 314 311 306 304 308 313 314 316 316 316 317 319 319 320 319
308 310 308 308 308 311 313 312 309 307 304 305 306 306 305 303 302 304 305 306 306 307 306 307 308 308 308 306 310 311 311 309 303 301 311 311 314 314 314 315 315 316 317
302 302 301 301 301 302 304 306 304 302 302 302 302 300 299 299 297 298 299 300 300 300 300 301 302 302 303 303 303 304 305 305 308 303 299 302 305 308 310 311 313 314 315
298 297 297 295 295 296 297 297 298 297 297 296 296 296 295 294 294 294 295 296 296 296 297 297 299 299 298 299 299 299 299 299 299 299 297 297 298 301 304 307 308 311 313
Wind_Speed
11 14 9 10 11 10 12 10 9 10 10 15 12 11 12 14 14 14 13 13 12 12 12 13 13 13 13 12 11 13 13 13 12 11 11 11 13 12 13 15 17 12 13
13 14 9 9 13 13 12 10 10 12 15 12 11 13 13 14 15 14 13 12 11 11 11 11 11 12 12 11 10 11 12 11 10 7 5 10 12 11 12 11 11 10 11
14 14 12 9 14 13 12 10 10 11 14 14 13 15 16 15 14 13 12 10 11 10 10 10 10 11 11 11 11 10 10 9 7 4 8 6 10 10 11 10 10 10 10
13 13 13 11 13 13 11 11 10 10 11 12 14 14 14 13 13 12 11 10 10 10 10 9 9 9 9 9 9 8 7 5 4 8 1 5 6 9 8 7 6 8 8
12 13 14 10 12 12 11 10 9 9 9 9 10 12 13 13 13 11 9 8 7 9 9 9 8 8 7 7 7 6 5 3 6 8 4 5 3 7 4 3 4 3 3
12 12 13 11 12 11 10 9 9 9 9 9 9 11 13 12 11 10 9 9 11 8 7 7 6 5 5 5 5 5 4 6 10 3 3 4 2 4 6 4 3 4 4
11 10 13 10 10 9 9 9 8 8 9 9 9 9 10 9 9 9 9 8 8 8 7 6 5 5 5 6 7 7 7 9 9 4 4 4 6 4 7 8 7 7 7
11 13 11 9 8 8 7 7 7 8 8 8 8 8 8 7 7 7 7 7 7 6 5 5 5 5 5 5 5 5 6 8 10 4 5 4 3 4 8 8 8 8 9
11 12 10 11 10 7 7 6 6 7 7 7 7 7 6 6 5 5 4 4 4 3 3 3 3 4 4 4 4 4 6 7 9 4 6 4 5 8 11 12 11 11 11
10 9 11 11 9 8 8 6 6 6 6 6 6 5 4 5 4 4 3 3 3 2 2 3 4 5 6 6 6 7 9 11 11 6 4 2 3 8 11 12 13 14 14
9 9 7 8 6 6 7 7 6 6 5 5 6 4 6 2 3 6 5 0 3 4 5 5 5 6 6 12 10 9 7 7 6 4 4 5 3 9 11 12 13 14 14
11 10 8 7 7 6 5 8 7 7 6 5 3 4 1 0 2 3 1 4 6 6 8 7 7 8 9 5 1 10 5 6 6 5 5 4 3 9 12 13 13 13 12
10 7 8 7 7 7 5 5 3 3 3 3 3 2 1 1 2 3 1 3 2 7 4 5 3 4 5 5 5 6 7 7 5 5 7 6 6 11 14 15 16 16 16
9 9 7 9 7 6 4 4 4 3 3 3 3 3 2 2 2 2 2 2 2 2 4 4 4 5 7 7 8 8 8 7 5 5 8 7 8 12 15 17 18 19 19
11 9 8 8 8 7 6 4 3 3 3 3 2 3 3 3 2 3 3 3 4 4 4 5 5 5 6 7 8 8 9 9 9 6 5 8 10 12 16 18 19 20 21
10 11 11 12 8 7 6 5 4 3 3 3 2 2 3 3 3 4 4 4 4 4 5 5 6 6 6 7 8 9 9 10 10 10 7 8 9 13 15 17 18 21 21
11 11 11 10 9 8 8 6 4 3 2 2 2 3 3 4 5 5 5 4 4 3 6 5 6 6 6 7 9 9 9 10 10 11 8 7 9 9 14 15 15 16 18
10 10 10 8 9 8 7 6 4 4 3 3 2 2 3 4 6 6 5 5 6 6 6 6 6 6 7 8 7 7 8 8 10 10 9 8 7 7 5 11 11 10 13
9 9 9 9 9 9 7 5 5 4 3 2 2 4 6 5 6 6 5 6 6 5 4 4 5 6 6 7 8 8 8 8 9 8 10 9 8 7 5 8 6 6 9
8 8 8 7 7 7 5 5 4 4 2 7 7 7 10 8 9 8 6 7 8 6 6 6 8 7 7 7 8 9 9 7 8 7 7 7 7 8 7 8 7 6 5
7 6 6 6 6 5 5 5 5 2 7 7 7 11 10 9 9 7 7 8 8 7 8 9 8 9 6 7 6 8 10 10 6 6 6 8 9 9 8 6 6 5 6
5 4 4 3 3 2 1 3 5 6 7 5 6 9 10 10 8 9 9 8 9 7 10 10 10 8 7 8 7 7 6 8 6 10 9 6 9 6 8 8 8 7 6
9 8 8 8 8 6 5 6 8 7 4 5 5 8 9 9 8 11 11 8 8 8 7 8 8 9 7 7 9 4 4 5 11 6 11 9 10 8 9 8 9 6 7
10 11 13 12 12 11 9 8 11 7 6 5 7 5 8 9 11 13 12 10 9 8 9 8 8 8 8 8 6 5 6 6 4 7 4 10 8 8 10 8 8 8 7
11 11 12 13 14 13 12 9 8 10 7 6 6 7 8 8 12 12 11 10 10 7 9 9 8 9 7 6 7 7 7 7 7 7 11 7 9 9 11 11 10 8 10
12 11 12 15 15 15 14 15 13 13 10 8 9 7 7 7 8 11 11 9 8 7 8 8 8 9 8 7 7 7 6 5 8 7 11 12 13 10 9 10 10 8 7
Wind_Direction
154 130 145 149 145 144 113 98 73 56 76 133 137 126 118 112 103 94 84 83 75 74 76 70 67 63 59 61 64 60 56 52 53 50 56 62 48 46 40 27 9 39 27
138 139 149 162 136 123 111 100 79 67 80 109 123 125 112 104 97 90 88 80 84 79 76 75 70 63 59 62 70 68 60 53 45 27 342 98 59 49 47 36 31 32 30
133 128 154 143 128 120 112 99 88 81 78 85 99 106 103 100 97 88 84 82 82 83 78 73 69 63 59 61 67 69 61 51 34 341 304 57 80 42 43 33 28 27 21
132 145 141 129 123 120 114 103 93 86 83 86 93 93 90 86 81 80 84 78 81 80 82 78 70 61 56 57 58 57 55 52 333 288 94 47 70 59 42 33 33 30 11
139 140 117 130 124 119 111 103 94 86 83 82 81 83 80 74 70 70 68 68 81 83 76 71 66 58 50 47 45 40 32 1 283 285 55 39 353 61 31 32 2 20 8
139 132 129 132 125 122 116 110 104 98 84 74 73 75 73 74 78 77 68 53 54 80 72 66 60 55 56 50 38 20 359 319 298 27 17 107 345 22 335 346 317 302 300
141 130 146 132 125 125 118 109 101 98 97 91 79 86 81 80 80 76 73 66 59 57 55 48 48 46 38 30 20 11 357 335 318 358 359 359 43 346 322 327 323 312 301
145 137 143 131 126 124 114 111 112 110 104 98 94 85 89 88 81 67 59 57 58 58 56 47 32 23 14 7 358 351 344 324 299 12 350 332 71 304 307 316 316 306 296
143 142 152 156 137 115 107 102 103 106 107 107 102 100 99 86 72 63 53 49 54 53 36 14 355 339 333 330 317 303 297 290 299 350 312 310 53 328 308 311 309 306 301
152 162 158 148 159 163 144 119 122 112 111 105 102 99 109 131 143 163 192 72 8 356 339 325 317 316 316 304 287 287 294 285 262 318 304 16 10 304 305 307 310 311 297
158 162 160 148 167 163 145 133 143 132 124 135 141 144 208 188 153 180 97 129 299 303 305 300 301 306 292 265 242 246 257 272 324 300 299 84 352 305 307 308 309 306 306
166 162 161 170 154 155 155 154 171 150 185 178 187 178 225 116 50 312 253 224 250 257 267 258 261 264 256 306 290 229 251 336 303 306 294 134 273 284 293 297 300 304 300
169 159 163 170 168 168 159 170 169 170 174 182 191 211 181 236 196 214 283 210 249 198 276 220 247 263 331 306 310 309 319 308 304 300 303 186 237 272 283 287 289 293 298
181 164 188 176 170 179 185 195 169 182 182 199 187 205 224 224 220 270 282 306 258 295 315 297 303 300 295 294 293 290 289 289 290 300 291 218 234 264 273 277 283 286 287
174 182 195 228 184 183 210 188 186 199 187 208 205 220 250 250 261 283 296 295 300 301 299 305 304 302 299 294 290 285 282 282 281 278 280 273 222 244 268 278 281 283 283
172 184 192 206 199 187 196 215 204 206 196 212 232 247 243 287 296 296 297 300 307 308 315 306 306 303 295 287 286 294 292 291 284 284 281 285 241 231 247 265 278 283 281
188 183 188 191 191 198 199 201 218 207 219 219 227 232 267 286 302 304 302 297 311 311 298 304 296 309 287 301 301 299 295 286 281 284 279 280 285 240 235 249 261 278 286
178 180 182 185 195 198 205 191 203 206 215 218 244 283 296 302 304 304 303 308 348 332 314 306 323 318 319 302 304 295 295 285 281 295 288 286 283 286 275 236 250 276 292
176 176 176 182 194 196 205 207 206 208 218 240 359 10 0 343 347 328 339 355 346 315 312 310 310 305 299 305 310 309 300 293 291 293 294 287 288 292 297 299 231 246 275
179 179 176 176 189 187 190 206 213 204 213 53 42 30 26 23 14 8 350 356 355 342 342 344 335 328 320 315 319 312 290 292 299 291 302 307 312 308 306 312 317 307 253
183 183 188 183 186 192 200 204 214 164 75 63 58 46 38 30 20 28 14 10 3 357 358 354 348 336 335 333 326 339 306 274 300 318 350 324 316 320 318 306 303 303 303
151 153 130 108 75 163 14 50 47 96 71 67 60 58 44 41 33 43 32 23 19 7 12 6 3 347 340 355 331 311 329 311 46 341 308 315 323 314 310 308 299 294 294
65 68 74 72 67 56 62 81 95 84 64 58 54 57 31 34 35 46 40 31 25 29 17 7 6 358 339 336 7 319 325 334 326 310 321 304 329 317 314 313 306 296 283
57 62 63 57 55 47 55 72 82 93 92 63 70 58 63 29 19 39 35 24 28 31 22 4 8 357 351 342 347 3 315 305 294 307 323 317 304 318 303 297 291 292 284
70 68 68 64 55 48 51 61 80 86 78 68 58 58 53 45 39 26 28 26 25 23 19 4 5 9 2 347 348 338 323 314 280 320 301 322 295 298 310 301 294 291 293
74 65 69 70 61 54 54 52 60 64 65 61 51 46 40 35 39 19 19 18 29 15 10 2 5 6 7 2 352 347 337 330 323 320 308 309 307 301 312 306 301 288 281